| time (UTC) | temp F | wind direction | speed knots | gust knots | rain 1hr in | rain 24hr in | rain mn in | humidity % | barometer mb |
| 20260905011648 | 76 | 18 | 0.0 | 1.7 | 0.09 | 0.24 | 0.24 | 98 | 1012.7 |
| 20260905010616 | 76 | 50 | 0.9 | 1.7 | 0.10 | 0.23 | 0.23 | 98 | 1012.7 |
| 20260905005615 | 76 | 20 | 0.9 | 1.7 | 0.11 | 0.22 | 0.22 | 98 | 1012.7 |
| 20260905004614 | 76 | 66 | 0.9 | 1.7 | 0.10 | 0.20 | 0.20 | 98 | 1012.7 |
| 20260905003543 | 76 | 124 | 0.0 | 0.9 | 0.07 | 0.17 | 0.17 | 98 | 1012.3 |
| 20260905002542 | 76 | 124 | 0.0 | 0.0 | 0.07 | 0.16 | 0.16 | 98 | 1012.3 |
| 20260905001510 | 76 | 124 | 0.0 | 0.0 | 0.05 | 0.14 | 0.14 | 97 | 1012.3 |
| 20260905000509 | 76 | 128 | 0.0 | 0.0 | 0.04 | 0.13 | 0.13 | 97 | 1012.3 |
| 20260904235508 | 76 | 129 | 0.0 | 0.9 | 0.02 | 0.11 | 0.11 | 97 | 1012.6 |
| 20260904234507 | 76 | 148 | 0.9 | 0.9 | 0.01 | 0.10 | 0.10 | 97 | 1012.3 |
| 20260904233506 | 76 | 121 | 0.0 | 0.9 | 0.02 | 0.10 | 0.10 | 96 | 1012.3 |
| 20260904232506 | 76 | 169 | 0.0 | 2.6 | 0.02 | 0.09 | 0.09 | 96 | 1012.6 |
| 20260904231433 | 77 | 114 | 1.7 | 3.5 | 0.03 | 0.09 | 0.09 | 96 | 1013.0 |
| 20260904230433 | 77 | 220 | 0.9 | 3.5 | 0.03 | 0.09 | 0.09 | 97 | 1013.0 |
| 20260904225432 | 78 | 119 | 0.9 | 2.6 | 0.03 | 0.09 | 0.09 | 97 | 1013.0 |
| 20260904224431 | 78 | 110 | 0.9 | 0.9 | 0.04 | 0.09 | 0.09 | 97 | 1013.0 |
| 20260904223430 | 78 | 115 | 0.0 | 0.9 | 0.06 | 0.08 | 0.08 | 97 | 1013.0 |
| 20260904222429 | 78 | 94 | 0.9 | 0.9 | 0.07 | 0.07 | 0.07 | 96 | 1013.0 |
| 20260904221428 | 78 | 131 | 0.9 | 1.7 | 0.06 | 0.06 | 0.06 | 96 | 1012.7 |
| 20260904220427 | 78 | 120 | 0.9 | 2.6 | 0.06 | 0.06 | 0.06 | 95 | 1012.0 |
| 20260904215356 | 78 | 78 | 0.9 | 2.6 | 0.06 | 0.06 | 0.06 | 94 | 1011.6 |
| 20260904214355 | 79 | 103 | 0.9 | 4.3 | 0.05 | 0.05 | 0.05 | 93 | 1011.3 |
| 20260904213354 | 80 | 311 | 0.0 | 6.1 | 0.02 | 0.02 | 0.02 | 89 | 1011.3 |
| 20260904212353 | 82 | 278 | 1.7 | 7.8 | 0.00 | 0.00 | 0.00 | 81 | 1010.3 |
| 20260904211352 | 87 | 265 | 3.5 | 7.8 | 0.00 | 0.00 | 0.00 | 74 | 1011.0 |
| 20260904210352 | 91 | 197 | 1.7 | 4.3 | 0.00 | 0.00 | 0.00 | 75 | 1011.0 |
| 20260904205351 | 93 | 61 | 1.7 | 4.3 | 0.00 | 0.00 | 0.00 | 71 | 1010.7 |
| 20260904204350 | 93 | 132 | 0.0 | 4.3 | 0.00 | 0.00 | 0.00 | 61 | 1010.7 |
| 20260904203349 | 93 | 168 | 0.9 | 7.0 | 0.00 | 0.00 | 0.00 | 63 | 1010.7 |
| 20260904202348 | 94 | 175 | 3.5 | 7.0 | 0.00 | 0.00 | 0.00 | 61 | 1010.7 |
| 20260904201347 | 94 | 222 | 0.0 | 6.1 | 0.00 | 0.00 | 0.00 | 63 | 1010.7 |
| 20260904200346 | 95 | 237 | 0.9 | 6.1 | 0.00 | 0.00 | 0.00 | 61 | 1010.7 |
| 20260904195345 | 95 | 136 | 0.0 | 7.8 | 0.00 | 0.00 | 0.00 | 61 | 1011.0 |
| 20260904194242 | 95 | 206 | 0.9 | 7.8 | 0.00 | 0.00 | 0.00 | 59 | 1011.0 |
| 20260904193241 | 96 | 173 | 1.7 | 7.8 | 0.00 | 0.00 | 0.00 | 59 | 1011.0 |
| 20260904192240 | 96 | 182 | 1.7 | 7.0 | 0.00 | 0.00 | 0.00 | 59 | 1011.3 |
| 20260904191239 | 96 | 174 | 2.6 | 7.0 | 0.00 | 0.00 | 0.00 | 59 | 1011.3 |
| 20260904190238 | 97 | 177 | 1.7 | 7.0 | 0.00 | 0.00 | 0.00 | 58 | 1011.7 |
| 20260904185237 | 96 | 165 | 2.6 | 7.0 | 0.00 | 0.00 | 0.00 | 61 | 1011.7 |
| 20260904184236 | 96 | 238 | 0.9 | 7.8 | 0.00 | 0.00 | 0.00 | 60 | 1012.0 |
| 20260904183235 | 96 | 176 | 2.6 | 7.8 | 0.00 | 0.00 | 0.00 | 59 | 1012.4 |
| 20260904182204 | 96 | 230 | 0.9 | 6.1 | 0.00 | 0.00 | 0.00 | 61 | 1012.4 |
| 20260904181131 | 95 | 163 | 2.6 | 6.1 | 0.00 | 0.00 | 0.00 | 61 | 1012.4 |
| 20260904180059 | 94 | 210 | 0.9 | 3.5 | 0.00 | 0.00 | 0.00 | 62 | 1012.4 |
| 20260904175027 | 94 | 171 | 1.7 | 4.3 | 0.00 | 0.00 | 0.00 | 63 | 1012.7 |
| 20260904174026 | 93 | 168 | 1.7 | 7.8 | 0.00 | 0.00 | 0.00 | 65 | 1012.7 |
| 20260904173025 | 95 | 117 | 1.7 | 7.8 | 0.00 | 0.00 | 0.00 | 60 | 1012.7 |
| 20260904172024 | 96 | 172 | 1.7 | 7.0 | 0.00 | 0.00 | 0.00 | 62 | 1013.0 |
| 20260904171024 | 95 | 167 | 0.9 | 7.0 | 0.00 | 0.00 | 0.00 | 61 | 1013.0 |
| 20260904170023 | 94 | 207 | 1.7 | 4.3 | 0.00 | 0.00 | 0.00 | 65 | 1013.4 |
| 20260904165022 | 93 | 329 | 0.9 | 5.2 | 0.00 | 0.00 | 0.00 | 67 | 1013.4 |
| 20260904163949 | 93 | 172 | 1.7 | 6.1 | 0.00 | 0.00 | 0.00 | 66 | 1013.4 |
| 20260904162917 | 93 | 205 | 1.7 | 6.1 | 0.00 | 0.00 | 0.00 | 67 | 1013.4 |
| 20260904161917 | 92 | 166 | 2.6 | 5.2 | 0.00 | 0.00 | 0.00 | 70 | 1013.4 |
| 20260904160845 | 92 | 176 | 2.6 | 5.2 | 0.00 | 0.00 | 0.00 | 70 | 1013.7 |
| 20260904155813 | 92 | 242 | 0.9 | 7.8 | 0.00 | 0.00 | 0.00 | 69 | 1013.7 |
| 20260904154812 | 92 | 177 | 3.5 | 7.0 | 0.00 | 0.00 | 0.00 | 71 | 1013.7 |
| 20260904153811 | 91 | 141 | 1.7 | 5.2 | 0.00 | 0.00 | 0.00 | 73 | 1013.7 |
| 20260904152810 | 92 | 124 | 2.6 | 5.2 | 0.00 | 0.00 | 0.00 | 72 | 1013.7 |
| 20260904151810 | 91 | 177 | 1.7 | 5.2 | 0.00 | 0.00 | 0.00 | 72 | 1013.7 |
| 20260904150809 | 91 | 188 | 2.6 | 5.2 | 0.00 | 0.00 | 0.00 | 73 | 1013.7 |
| 20260904145737 | 90 | 138 | 1.7 | 4.3 | 0.00 | 0.00 | 0.00 | 73 | 1013.7 |
| 20260904144736 | 90 | 180 | 0.9 | 5.2 | 0.00 | 0.00 | 0.00 | 76 | 1013.7 |
| 20260904143735 | 89 | 153 | 1.7 | 5.2 | 0.00 | 0.00 | 0.00 | 78 | 1013.7 |
| 20260904142734 | 89 | 178 | 1.7 | 4.3 | 0.00 | 0.00 | 0.00 | 78 | 1013.7 |
| 20260904141702 | 88 | 180 | 0.9 | 2.6 | 0.00 | 0.00 | 0.00 | 80 | 1013.4 |
| 20260904140701 | 87 | 122 | 0.0 | 3.5 | 0.00 | 0.01 | 0.00 | 82 | 1013.4 |
| 20260904135700 | 87 | 267 | 0.9 | 3.5 | 0.00 | 0.02 | 0.00 | 83 | 1013.4 |
| 20260904134659 | 86 | 159 | 1.7 | 3.5 | 0.00 | 0.02 | 0.00 | 84 | 1013.4 |
| 20260904133627 | 86 | 124 | 0.9 | 2.6 | 0.00 | 0.02 | 0.00 | 86 | 1013.4 |
| 20260904132626 | 85 | 174 | 0.9 | 1.7 | 0.00 | 0.02 | 0.00 | 87 | 1013.4 |
| 20260904131626 | 84 | 122 | 0.9 | 1.7 | 0.00 | 0.02 | 0.00 | 88 | 1013.4 |
| 20260904130625 | 84 | 115 | 0.9 | 0.9 | 0.00 | 0.02 | 0.00 | 91 | 1013.4 |
| 20260904125624 | 83 | 162 | 0.0 | 0.9 | 0.00 | 0.02 | 0.00 | 93 | 1013.4 |
| 20260904124623 | 81 | 159 | 0.9 | 0.9 | 0.00 | 0.02 | 0.00 | 95 | 1013.4 |
| 20260904123622 | 80 | 124 | 0.0 | 0.0 | 0.00 | 0.02 | 0.00 | 100 | 1013.0 |
| 20260904122550 | 78 | 124 | 0.0 | 0.0 | 0.00 | 0.02 | 0.00 | 100 | 1013.0 |
| 20260904121549 | 76 | 124 | 0.0 | 0.0 | 0.00 | 0.02 | 0.00 | 100 | 1013.0 |
| 20260904120549 | 75 | 124 | 0.0 | 0.0 | 0.00 | 0.02 | 0.00 | 100 | 1013.0 |
| 20260904115548 | 75 | 126 | 0.0 | 0.0 | 0.00 | 0.02 | 0.00 | 99 | 1012.7 |
| 20260904114516 | 75 | 125 | 0.0 | 0.0 | 0.00 | 0.02 | 0.00 | 99 | 1013.0 |
| 20260904113515 | 75 | 126 | 0.0 | 0.0 | 0.00 | 0.02 | 0.00 | 99 | 1012.7 |
| 20260904112514 | 75 | 125 | 0.0 | 0.0 | 0.00 | 0.02 | 0.00 | 99 | 1012.7 |
| 20260904111514 | 75 | 125 | 0.0 | 0.0 | 0.00 | 0.02 | 0.00 | 99 | 1012.3 |
| 20260904110442 | 75 | 124 | 0.0 | 0.0 | 0.00 | 0.02 | 0.00 | 99 | 1012.3 |
| 20260904105441 | 75 | 124 | 0.0 | 0.0 | 0.00 | 0.02 | 0.00 | 99 | 1012.3 |
| 20260904104440 | 75 | 124 | 0.0 | 0.0 | 0.00 | 0.02 | 0.00 | 99 | 1012.0 |
| 20260904103439 | 75 | 124 | 0.0 | 0.0 | 0.00 | 0.02 | 0.00 | 99 | 1012.0 |
| 20260904102438 | 76 | 124 | 0.0 | 0.0 | 0.00 | 0.02 | 0.00 | 99 | 1012.0 |
| 20260904101437 | 76 | 124 | 0.0 | 0.0 | 0.00 | 0.02 | 0.00 | 99 | 1012.0 |
| 20260904100436 | 76 | 124 | 0.0 | 0.0 | 0.00 | 0.02 | 0.00 | 99 | 1011.7 |
| 20260904095435 | 76 | 124 | 0.0 | 0.0 | 0.00 | 0.02 | 0.00 | 99 | 1011.7 |
| 20260904094435 | 76 | 124 | 0.0 | 0.0 | 0.00 | 0.02 | 0.00 | 99 | 1011.7 |
| 20260904093434 | 76 | 124 | 0.0 | 0.0 | 0.00 | 0.02 | 0.00 | 99 | 1011.7 |
| 20260904092433 | 76 | 124 | 0.0 | 0.0 | 0.00 | 0.02 | 0.00 | 99 | 1011.7 |
| 20260904091432 | 76 | 124 | 0.0 | 0.0 | 0.00 | 0.02 | 0.00 | 99 | 1011.7 |
| 20260904090431 | 76 | 124 | 0.0 | 0.0 | 0.00 | 0.02 | 0.00 | 99 | 1011.7 |
| 20260904085431 | 76 | 124 | 0.0 | 0.0 | 0.00 | 0.02 | 0.00 | 99 | 1011.7 |
| 20260904084430 | 76 | 124 | 0.0 | 0.0 | 0.00 | 0.02 | 0.00 | 99 | 1011.7 |
| 20260904083429 | 76 | 124 | 0.0 | 0.0 | 0.00 | 0.02 | 0.00 | 99 | 1011.7 |
| 20260904082429 | 76 | 124 | 0.0 | 0.0 | 0.00 | 0.02 | 0.00 | 99 | 1011.7 |
| 20260904081428 | 76 | 124 | 0.0 | 0.0 | 0.00 | 0.02 | 0.00 | 99 | 1012.0 |
| 20260904080427 | 76 | 124 | 0.0 | 0.0 | 0.00 | 0.02 | 0.00 | 99 | 1011.7 |
| 20260904075426 | 76 | 124 | 0.0 | 0.0 | 0.00 | 0.02 | 0.00 | 99 | 1011.7 |
| 20260904074425 | 76 | 124 | 0.0 | 0.0 | 0.00 | 0.02 | 0.00 | 99 | 1011.7 |
| 20260904073424 | 76 | 124 | 0.0 | 0.0 | 0.00 | 0.02 | 0.00 | 99 | 1011.7 |
| 20260904072424 | 76 | 124 | 0.0 | 0.0 | 0.00 | 0.02 | 0.00 | 99 | 1011.7 |
| 20260904071423 | 76 | 124 | 0.0 | 0.0 | 0.00 | 0.02 | 0.00 | 99 | 1011.7 |
| 20260904070422 | 77 | 124 | 0.0 | 0.0 | 0.00 | 0.02 | 0.00 | 98 | 1011.7 |
| 20260904065421 | 77 | 124 | 0.0 | 0.0 | 0.00 | 0.02 | 0.00 | 98 | 1011.7 |
| 20260904064420 | 77 | 124 | 0.0 | 0.0 | 0.00 | 0.02 | 0.00 | 98 | 1011.7 |
| 20260904063420 | 77 | 124 | 0.0 | 0.0 | 0.00 | 0.02 | 0.00 | 98 | 1011.7 |
| 20260904062419 | 77 | 124 | 0.0 | 0.0 | 0.00 | 0.02 | 0.00 | 98 | 1011.7 |
| 20260904061418 | 77 | 124 | 0.0 | 0.0 | 0.00 | 0.02 | 0.00 | 98 | 1012.0 |
| 20260904060417 | 77 | 124 | 0.0 | 0.0 | 0.00 | 0.02 | 0.00 | 98 | 1012.0 |
| 20260904055416 | 77 | 124 | 0.0 | 0.0 | 0.00 | 0.02 | 0.00 | 98 | 1012.3 |
| 20260904054416 | 77 | 124 | 0.0 | 0.0 | 0.00 | 0.02 | 0.00 | 98 | 1012.3 |
| 20260904053415 | 77 | 124 | 0.0 | 0.0 | 0.00 | 0.02 | 0.00 | 98 | 1012.3 |
| 20260904052414 | 77 | 124 | 0.0 | 0.0 | 0.00 | 0.02 | 0.00 | 98 | 1012.3 |
| 20260904051342 | 77 | 124 | 0.0 | 0.0 | 0.00 | 0.02 | 0.00 | 98 | 1012.3 |
| 20260904050341 | 78 | 124 | 0.0 | 0.0 | 0.00 | 0.02 | 0.00 | 98 | 1012.3 |
| 20260904045341 | 78 | 124 | 0.0 | 0.0 | 0.00 | 0.02 | 0.00 | 97 | 1012.7 |
| 20260904044340 | 78 | 124 | 0.0 | 0.0 | 0.00 | 0.02 | 0.00 | 97 | 1012.7 |
| 20260904043307 | 78 | 124 | 0.0 | 0.0 | 0.00 | 0.02 | 0.00 | 97 | 1012.7 |
| 20260904042307 | 78 | 124 | 0.0 | 0.0 | 0.00 | 0.02 | 0.00 | 97 | 1012.7 |
| 20260904041306 | 79 | 124 | 0.0 | 0.0 | 0.00 | 0.02 | 0.00 | 97 | 1012.3 |
| 20260904040305 | 79 | 124 | 0.0 | 0.0 | 0.00 | 0.02 | 0.00 | 96 | 1012.3 |
| 20260904035306 | 79 | 124 | 0.0 | 0.9 | 0.00 | 0.02 | 0.02 | 96 | 1012.3 |
| 20260904034232 | 79 | 124 | 0.9 | 0.9 | 0.00 | 0.02 | 0.02 | 96 | 1012.3 |
| 20260904033231 | 80 | 124 | 0.0 | 0.9 | 0.00 | 0.02 | 0.02 | 96 | 1012.7 |
| 20260904032231 | 80 | 124 | 0.0 | 1.7 | 0.00 | 0.02 | 0.02 | 96 | 1012.3 |
| 20260904031230 | 80 | 124 | 0.9 | 2.6 | 0.00 | 0.02 | 0.02 | 96 | 1012.3 |
| 20260904030229 | 80 | 225 | 0.9 | 2.6 | 0.00 | 0.02 | 0.02 | 95 | 1012.3 |
| 20260904025228 | 80 | 119 | 1.7 | 2.6 | 0.00 | 0.02 | 0.02 | 95 | 1012.3 |
| 20260904024227 | 80 | 121 | 0.9 | 2.6 | 0.00 | 0.02 | 0.02 | 95 | 1012.3 |
| 20260904023226 | 80 | 164 | 0.9 | 3.5 | 0.00 | 0.02 | 0.02 | 95 | 1012.3 |
| 20260904022225 | 80 | 130 | 1.7 | 4.3 | 0.00 | 0.02 | 0.02 | 95 | 1012.3 |
| 20260904021224 | 80 | 186 | 0.9 | 2.6 | 0.00 | 0.02 | 0.02 | 95 | 1012.3 |
| 20260904020224 | 80 | 131 | 0.9 | 2.6 | 0.00 | 0.02 | 0.02 | 95 | 1012.3 |
| 20260904015223 | 80 | 113 | 0.9 | 2.6 | 0.00 | 0.02 | 0.02 | 95 | 1012.3 |
| 20260904014222 | 80 | 101 | 0.9 | 2.6 | 0.00 | 0.02 | 0.02 | 95 | 1012.3 |
| 20260904013221 | 80 | 128 | 0.9 | 2.6 | 0.00 | 0.02 | 0.02 | 95 | 1012.3 |